User: anonymous   Login
Location: South Tamworth Observatory
(43.8246°N, 71.3026°W)
Time: 09:31:46
(UTC-04:00)
Language:

Cosmos 2208 Rocket - Orbit

View from above orbital plane
View from above orbital plane
View from above satellite
View from above satellite

Ground track
Ground track

The orbit data is extracted from the following two-line orbital elements,

1 22081U 92053B   14295.90190171  .00000370  00000-0  14335-3 0  7112
2 22081 074.0467 046.3577 0037082 253.8700 105.8369 14.33117674160118
Epoch (UTC): 22 October 2014 21:38:44
Eccentricity: 0.0037082
inclination: 74.0467°
perigee height: 755 km
apogee height: 808 km
right ascension of ascending node: 46.3577°
argument of perigee: 253.8700°
revolutions per day: 14.33117674
mean anomaly at epoch: 105.8369°
orbit number at epoch: 16011

The dashed part of the orbit path shows where the satellite is in the earth's shadow,  

DLR